Wind_Speed
20 21 22 22 21 21 21 21 20 18 16 14 11 10 8 7 8 8 8 8 8 6 4 3 4 5 5 4 2 3 5 6 7 7 6 8 7 5 5 7 4 14 14 11 8 8 9 8 10 10 13 11 5 1 1 5 13 15 6 5 3 2 3 4 2 6 3 6 11 9 7 6 5 8 10 11 16 17 17 18 18 19 19 15 12 10 9 7
21 22 22 22 21 21 21 21 20 18 17 15 12 9 6 6 7 7 7 8 8 6 4 3 4 4 4 4 2 5 7 8 8 9 10 10 9 9 7 4 13 15 11 9 6 11 11 9 9 10 12 9 2 3 4 7 15 10 3 4 2 2 7 8 5 6 6 9 11 9 9 10 9 8 10 10 14 16 14 15 16 18 17 14 12 11 9 9
21 22 23 22 21 21 22 22 21 19 17 15 12 8 5 5 6 6 6 8 7 6 3 3 4 4 4 4 4 6 8 9 9 10 10 9 8 7 6 12 14 11 8 4 4 10 7 6 8 10 10 5 2 7 7 7 10 5 4 2 3 3 9 12 10 9 11 12 11 11 12 12 10 8 9 11 14 15 13 13 14 16 16 14 13 12 11 11
21 22 23 22 21 22 23 23 22 19 16 14 11 7 3 4 5 5 6 8 7 5 2 3 4 4 5 4 5 5 6 7 7 8 9 6 6 8 13 13 10 9 5 8 8 7 7 3 8 11 6 2 5 8 4 5 6 5 3 2 2 5 8 12 16 15 12 11 12 12 12 12 11 9 9 10 11 11 13 14 15 16 15 13 12 12 12 12
22 23 23 23 22 23 24 25 23 17 13 12 9 5 1 3 3 5 7 8 6 3 2 3 4 4 4 3 4 4 5 4 3 7 6 6 10 14 12 10 9 7 4 6 6 4 3 5 9 4 5 4 7 7 4 7 6 7 4 6 8 8 8 12 18 19 12 11 13 12 11 12 12 13 14 14 11 9 12 14 15 16 14 12 11 12 13 12
22 23 24 24 23 24 25 26 22 15 11 11 7 4 0 2 3 6 8 8 5 2 2 3 4 3 2 4 5 6 7 1 5 7 8 13 14 12 9 7 6 5 4 4 6 5 5 8 6 7 7 4 5 5 7 11 5 5 7 9 12 11 11 12 15 17 13 13 13 11 12 13 13 14 17 19 15 12 13 14 15 15 13 12 11 12 13 14
22 23 24 24 23 24 26 25 20 13 10 9 6 3 1 2 5 8 9 6 3 1 3 4 3 4 5 7 6 9 9 1 8 12 14 14 11 9 7 5 5 5 2 7 8 6 7 7 4 14 4 3 5 6 7 11 9 8 8 10 13 13 14 14 15 16 16 17 14 12 12 13 13 12 15 18 15 13 13 13 15 14 12 13 13 12 13 14
21 22 23 24 23 24 25 24 18 13 10 8 5 3 1 4 7 9 7 4 2 1 3 4 5 6 7 7 6 9 6 8 13 14 12 10 8 6 5 4 3 2 3 9 7 6 8 1 19 19 3 3 6 7 6 7 9 9 8 11 12 14 15 14 16 17 15 16 14 13 14 14 15 14 15 16 14 13 12 13 15 14 12 13 14 14 14 14
20 22 23 23 23 23 24 22 16 12 10 7 4 2 2 6 8 8 5 3 0 3 4 6 6 7 8 6 9 7 6 11 11 11 9 7 6 4 5 3 1 2 6 7 6 8 9 5 21 11 7 4 5 5 4 4 7 8 10 13 12 14 13 13 16 16 13 13 12 12 13 14 12 12 14 14 13 13 12 13 14 13 12 12 14 14 15 14
19 21 22 23 22 22 23 21 15 11 9 6 4 2 5 8 8 5 3 2 1 3 5 7 6 7 7 4 10 4 11 11 8 8 7 6 4 3 4 3 3 6 8 6 6 8 5 3 15 19 13 2 4 5 6 6 8 10 12 13 13 13 12 14 15 15 13 12 11 11 12 13 10 8 9 11 12 12 13 14 14 12 11 11 12 12 13 12
18 20 21 22 21 21 22 20 14 10 8 6 3 4 7 8 5 3 2 1 2 4 7 7 5 7 5 6 13 3 13 10 7 7 6 5 5 3 3 3 4 8 9 5 6 6 1 2 8 11 6 5 6 8 11 10 11 12 11 11 13 13 12 14 13 12 11 9 12 14 13 14 12 10 9 11 12 13 14 13 12 11 10 10 10 11 12 12
17 18 20 21 20 20 21 19 13 9 7 5 4 7 8 6 3 2 1 2 3 5 6 4 3 6 6 11 12 8 14 9 8 7 6 5 6 6 5 6 6 9 10 6 4 4 2 5 8 9 3 4 6 7 9 10 11 11 9 9 11 10 9 11 7 7 9 8 9 10 11 11 10 10 12 12 12 15 16 12 11 11 9 9 10 11 12 11
16 17 19 19 19 18 20 18 12 8 5 4 6 8 6 4 2 2 2 2 3 4 3 3 3 5 9 7 5 12 9 8 9 7 7 6 7 6 6 6 6 7 10 8 2 3 7 6 6 9 3 2 6 7 9 10 11 9 7 6 6 4 5 8 4 3 6 6 4 4 6 6 7 11 13 12 12 14 15 11 10 10 8 8 10 11 12 11
16 16 18 18 17 17 18 17 11 7 5 6 8 7 4 3 1 2 2 3 2 2 3 6 6 7 9 1 10 10 8 8 7 7 8 7 6 6 5 4 5 6 7 2 4 7 7 1 3 11 7 5 9 11 8 7 8 7 4 3 2 3 5 8 3 3 4 7 6 8 6 3 6 13 15 12 13 14 13 11 10 10 9 8 8 10 11 11
15 15 17 17 16 15 16 16 10 6 5 6 6 4 2 2 1 2 2 2 1 2 5 8 8 8 6 5 7 9 11 8 7 8 8 7 7 7 5 5 5 4 2 4 4 7 10 7 10 14 11 12 12 8 4 3 2 2 2 1 1 3 6 8 5 2 4 7 6 7 6 4 5 12 17 14 15 16 13 10 9 9 9 8 7 9 11 11
15 15 16 17 15 13 14 14 9 4 3 4 4 2 1 1 1 1 1 1 3 3 9 9 5 7 5 7 9 9 8 8 7 8 8 8 9 8 8 6 5 3 4 5 3 8 13 16 17 14 13 13 10 5 2 1 3 2 2 0 1 4 5 4 3 6 7 5 6 7 6 6 7 12 16 16 17 17 14 10 9 9 8 8 7 8 9 9
16 15 15 16 15 12 12 13 9 3 1 1 1 1 1 1 1 1 1 3 2 6 12 9 7 9 2 8 10 9 8 8 8 8 8 8 7 8 9 6 7 6 4 3 3 8 8 14 17 9 11 7 3 5 2 2 3 3 3 1 2 6 5 3 4 8 9 8 11 11 8 9 10 12 15 16 17 16 14 10 10 9 8 8 8 8 9 7
16 14 14 15 15 12 10 11 10 3 2 1 1 1 1 1 1 1 1 3 2 5 9 10 11 8 4 11 12 9 9 8 6 8 8 6 5 8 9 6 5 4 7 5 3 7 6 14 15 5 5 3 2 4 1 1 2 4 6 4 3 6 5 6 5 4 8 11 12 10 10 12 11 12 13 15 16 16 14 11 10 10 9 9 8 8 8 8
16 14 14 15 14 12 10 9 9 5 1 1 1 1 2 3 2 2 3 4 5 7 7 6 8 5 5 15 12 6 9 8 7 9 8 7 8 10 8 7 6 3 5 4 8 11 3 9 10 4 3 3 4 7 7 6 8 7 7 8 6 7 6 9 8 6 10 11 11 10 9 11 11 10 12 13 15 16 15 12 11 11 10 9 9 8 8 10
16 15 13 14 14 12 9 8 8 6 2 1 2 2 3 4 4 3 6 8 10 12 10 10 8 8 8 14 10 8 7 8 10 10 10 8 10 11 8 10 8 4 2 3 6 3 3 1 3 1 4 9 12 15 11 9 9 4 6 9 8 8 8 9 8 7 12 9 7 12 10 10 11 10 11 11 12 14 15 14 12 11 10 9 9 9 10 12
16 15 14 13 14 12 9 8 6 4 2 3 3 3 3 4 4 3 1 8 9 12 14 10 9 7 12 11 8 12 9 9 10 9 10 9 8 9 11 10 3 4 9 6 1 6 3 2 2 0 5 13 13 12 8 6 8 6 6 7 8 8 8 10 8 8 11 8 6 11 12 10 9 9 11 11 10 12 14 14 13 12 11 10 10 11 12 13
15 15 14 12 13 12 9 8 6 3 1 2 3 7 6 7 6 7 4 9 7 10 12 8 8 4 12 12 7 12 11 9 9 10 9 7 7 4 8 11 6 1 11 9 3 5 2 2 4 2 5 8 6 6 9 7 7 7 6 6 6 7 8 9 11 9 5 5 7 9 11 10 9 9 11 11 11 12 14 14 14 13 13 12 11 12 14 14
15 14 14 12 13 12 9 8 5 4 4 6 8 5 7 9 8 7 4 9 6 10 9 6 9 5 12 11 5 9 10 8 10 12 9 7 14 12 9 10 8 2 4 8 6 4 2 3 5 5 1 2 5 4 5 4 3 5 6 6 5 7 6 5 10 7 2 4 9 11 10 8 8 9 9 12 13 13 14 15 15 14 15 14 13 14 14 14
15 14 13 13 12 11 9 7 3 6 8 9 8 5 7 9 8 9 6 9 6 10 11 10 11 8 11 9 7 12 10 8 10 10 10 9 13 19 15 9 6 6 8 11 9 1 7 11 8 6 5 3 4 4 2 1 2 4 6 6 5 7 6 7 11 8 6 7 10 9 8 6 6 8 7 9 12 12 13 14 14 15 16 16 16 16 16 15
15 14 13 12 12 11 6 5 3 5 8 9 4 4 8 10 8 8 5 8 6 6 10 15 13 9 12 10 12 15 7 7 10 9 13 9 5 10 8 4 3 3 9 15 11 2 8 17 12 9 12 9 5 5 1 2 1 4 7 6 8 10 8 11 14 8 3 5 5 2 3 5 6 7 7 7 9 10 11 13 14 14 15 16 16 16 16 16
14 13 13 11 13 10 4 2 3 5 8 6 5 5 8 10 9 4 2 5 3 5 7 15 13 8 14 12 15 15 6 7 11 7 12 5 2 4 5 4 5 5 10 13 7 3 10 21 14 8 8 6 2 5 1 2 1 2 8 12 10 10 10 11 11 6 2 2 3 1 1 4 5 6 7 7 9 9 10 12 13 13 15 15 15 16 16 17
14 13 12 10 11 11 7 5 6 8 8 8 7 7 9 9 7 4 1 4 2 6 7 13 10 8 14 13 15 12 4 8 9 4 9 6 5 8 5 5 7 7 11 8 1 3 10 21 16 8 9 6 4 1 3 2 2 2 11 17 13 11 11 9 8 4 2 1 4 5 3 4 5 5 7 8 10 10 9 10 12 13 15 15 16 16 17 17
14 13 12 8 8 11 11 10 10 10 9 10 10 9 9 8 5 2 4 2 4 5 6 9 6 5 11 13 18 13 2 8 8 6 10 9 10 10 3 3 5 6 8 3 2 5 6 12 16 11 9 5 5 3 4 4 2 4 10 13 12 11 10 7 5 4 1 1 2 5 5 5 4 5 6 7 8 10 9 9 11 13 15 16 17 17 18 19
14 13 13 9 6 9 11 12 12 11 10 12 12 9 8 8 4 2 5 2 3 5 4 7 7 6 9 12 18 15 4 6 8 9 10 9 10 9 7 2 6 6 7 2 1 6 5 4 11 14 6 3 6 8 9 5 2 3 7 7 8 9 7 5 2 3 2 1 2 6 6 3 4 4 4 5 6 8 8 8 10 13 14 16 17 17 18 18
13 13 13 11 7 8 10 8 8 8 9 12 12 9 10 8 2 5 5 2 4 7 7 8 11 11 11 10 12 12 7 8 9 10 10 10 11 11 9 6 5 4 6 3 1 6 5 1 4 11 7 4 8 13 15 11 7 2 6 10 12 10 7 5 3 3 1 2 2 7 7 3 4 4 3 4 5 7 8 7 10 14 14 15 16 17 17 17
13 12 13 12 8 8 9 4 3 5 7 12 13 9 9 6 4 5 3 2 4 7 10 8 11 13 12 10 10 10 10 10 9 9 8 8 9 10 9 5 4 3 4 2 3 6 7 5 2 7 7 8 9 12 13 12 9 6 9 8 7 5 4 3 2 2 1 2 3 7 6 3 3 3 4 6 7 8 9 8 10 13 14 15 15 15 16 16
13 13 13 13 11 9 10 9 5 7 9 11 10 7 7 5 5 5 4 3 3 7 8 8 11 12 13 12 10 10 10 9 8 8 7 6 6 6 5 4 3 2 2 1 3 5 6 3 2 5 4 7 6 7 6 6 7 8 8 5 4 0 1 1 2 1 1 3 4 9 8 5 4 5 7 8 8 9 10 11 12 13 14 16 15 14 15 15
13 15 13 12 12 11 11 11 10 11 12 10 7 5 6 5 6 7 6 4 3 8 7 8 11 13 13 12 10 9 9 7 8 9 8 6 5 5 5 6 5 2 1 2 3 4 4 2 2 5 4 6 5 2 2 2 3 6 6 4 2 2 1 1 2 2 3 4 4 11 9 5 6 5 6 9 9 10 12 13 14 14 15 15 15 14 14 15
13 15 13 12 13 11 10 10 11 12 10 7 5 6 6 6 7 7 7 7 5 8 9 8 11 13 14 11 10 10 8 6 8 9 8 7 5 5 6 6 7 4 2 3 3 2 1 2 5 3 4 5 5 3 4 2 1 3 5 5 3 2 1 0 1 2 4 1 1 6 6 5 5 5 7 10 12 13 13 14 14 13 15 15 14 14 14 14
13 13 13 12 11 10 9 9 8 7 6 5 6 6 6 6 7 6 6 7 6 7 10 10 10 11 12 11 11 12 9 6 8 9 7 6 4 4 6 4 5 6 2 2 1 1 4 2 6 3 2 4 5 6 9 6 3 1 1 4 3 2 3 1 2 3 5 2 1 3 4 5 6 7 9 11 12 13 14 14 15 14 14 14 14 14 14 14
12 12 12 11 9 8 8 8 7 5 6 8 6 6 7 7 7 6 6 7 7 7 9 9 10 10 10 9 9 12 10 6 8 9 6 6 4 5 8 5 5 8 3 3 0 2 3 3 5 6 3 6 2 3 4 5 4 0 2 2 5 6 4 1 1 2 5 3 2 4 6 5 6 7 8 10 10 11 13 14 15 14 14 13 13 14 13 13
10 11 12 11 10 10 8 8 8 6 7 9 7 7 7 8 10 8 6 7 8 8 8 7 8 9 8 8 8 10 12 7 9 7 3 4 5 4 8 4 6 7 4 4 2 3 1 3 3 5 7 7 0 3 1 7 8 3 2 4 6 7 5 2 1 0 3 2 2 5 8 7 5 4 7 10 10 10 11 13 14 14 13 12 12 14 14 14
8 9 12 11 9 10 11 10 9 9 9 8 7 8 8 9 13 11 8 8 8 9 8 5 5 7 7 7 8 11 12 7 7 6 1 0 0 6 10 4 5 5 4 5 3 2 3 1 5 5 5 6 5 3 4 8 10 7 3 4 4 3 2 1 1 2 1 2 1 3 7 6 3 4 9 11 11 11 11 12 13 12 13 13 13 13 14 14
6 7 11 9 8 10 12 11 11 11 10 7 6 8 8 10 13 13 10 9 8 8 7 6 6 6 5 4 6 11 11 7 7 6 4 4 1 10 12 3 5 6 6 4 4 3 5 2 3 4 3 4 6 5 5 6 10 8 5 4 4 2 1 1 3 2 2 1 1 0 3 4 4 6 11 13 11 12 12 11 11 12 13 13 13 13 13 12
5 6 8 7 11 11 11 11 11 10 8 7 7 8 9 11 12 12 10 8 7 7 6 6 8 7 4 7 7 8 9 9 7 5 4 3 6 12 10 3 4 7 6 7 4 1 3 2 2 5 5 3 3 4 2 1 1 3 4 3 1 1 2 1 2 1 2 2 1 2 2 3 4 5 9 12 12 12 13 12 12 13 14 13 13 13 12 12
7 8 7 9 11 10 10 9 9 9 7 7 9 10 10 11 10 10 10 8 8 9 7 5 7 6 6 9 8 4 6 8 5 7 5 4 6 7 7 4 3 4 5 6 3 3 1 2 1 5 4 2 4 2 6 4 3 4 4 2 1 1 2 1 1 3 2 2 1 2 4 2 1 3 6 11 12 13 16 15 14 15 14 13 14 13 13 13
8 7 5 11 13 11 10 8 8 10 8 7 11 11 10 10 10 10 11 10 10 10 9 5 5 6 8 9 4 5 7 6 6 8 5 7 8 6 4 5 5 2 5 2 4 6 4 1 3 4 2 2 9 7 3 5 6 7 5 2 1 2 1 1 1 2 1 2 3 1 5 1 1 1 6 12 13 14 17 17 16 16 15 14 15 14 13 13
10 9 6 10 13 11 10 7 8 9 8 11 15 14 11 10 9 9 10 11 10 8 8 7 5 8 9 7 6 7 9 6 8 9 7 7 8 6 4 6 8 2 7 4 5 4 3 2 2 3 3 2 9 12 4 3 4 7 4 3 4 1 3 1 1 1 2 3 4 2 4 0 1 6 6 11 14 15 17 16 16 18 16 15 15 14 14 14
11 13 11 9 11 11 10 7 7 7 8 13 14 12 11 11 11 11 9 11 11 8 8 9 9 10 8 5 5 6 6 4 5 9 7 5 6 6 5 7 7 3 5 5 1 0 2 3 2 3 3 3 7 10 5 3 2 4 2 2 5 4 1 2 2 0 2 5 5 4 3 1 3 4 4 10 14 14 17 18 17 18 17 16 15 14 15 14
11 11 11 11 12 13 12 10 9 7 9 13 11 9 9 9 12 14 12 11 13 11 8 8 11 11 8 7 8 5 5 7 4 5 7 5 6 9 8 7 7 2 6 8 3 1 1 1 2 3 1 1 2 4 5 3 3 5 5 3 4 2 4 3 2 1 2 5 5 3 3 2 5 6 7 10 12 13 16 19 18 17 17 16 16 16 15 14
7 6 7 9 12 15 15 17 15 9 7 9 8 8 9 8 11 14 13 12 13 13 9 9 13 14 11 10 9 9 9 9 6 4 7 6 4 6 9 8 5 5 10 7 1 2 2 2 1 2 1 3 4 3 7 6 4 5 6 7 6 1 5 4 3 2 2 3 2 4 5 6 6 7 8 11 11 12 15 18 18 17 16 16 16 16 14 14
6 5 6 5 8 12 13 17 16 9 8 9 5 8 11 10 10 10 11 12 11 12 10 9 12 12 10 11 9 9 10 10 9 9 6 5 4 5 9 8 5 10 8 6 3 2 3 2 2 3 2 6 7 8 10 9 9 9 3 5 9 3 6 4 3 1 1 1 0 4 7 8 8 8 10 12 11 12 16 18 18 17 17 17 16 16 14 13
7 9 9 4 3 7 8 12 15 12 11 10 5 6 12 12 10 9 11 12 11 11 9 7 11 12 10 12 9 7 9 9 9 9 7 6 6 6 6 6 6 12 9 8 7 1 4 1 4 3 4 10 11 11 11 9 10 11 4 1 6 4 3 2 2 1 1 3 2 6 9 6 6 8 10 12 13 15 17 18 17 18 19 18 16 16 14 13
9 12 11 8 7 9 9 11 16 15 12 10 6 7 11 14 14 12 11 10 10 11 10 7 9 11 12 12 10 7 8 7 5 6 8 6 4 5 6 6 8 15 11 6 6 3 3 2 2 1 5 11 13 11 11 11 9 9 8 6 6 4 2 2 1 3 4 4 4 1 1 3 3 7 10 13 16 18 18 17 18 19 20 18 16 15 14 13
9 8 8 10 10 11 12 11 13 12 11 10 7 8 11 13 15 14 12 11 9 9 12 11 10 11 13 13 11 9 9 8 5 5 6 3 1 3 4 2 3 8 8 5 6 4 2 1 3 4 5 9 11 11 11 10 9 8 8 7 5 3 1 0 1 4 3 2 4 4 2 5 1 9 14 17 19 19 17 17 17 19 20 19 16 15 15 14
11 9 8 8 7 8 10 9 9 8 7 9 8 8 10 11 14 14 12 14 14 10 10 12 11 11 13 12 12 10 8 11 10 6 7 5 2 3 6 0 3 3 1 2 5 3 1 2 4 5 4 6 8 8 7 6 8 9 6 5 5 3 2 2 2 2 2 2 3 3 2 1 5 11 16 19 20 19 19 18 18 18 20 19 16 15 15 14
13 10 7 7 6 8 8 7 7 8 7 7 9 10 10 11 14 14 8 10 17 17 15 15 11 9 9 11 11 7 6 11 10 4 7 7 4 5 7 4 4 4 3 2 3 3 2 3 4 4 4 5 4 2 4 6 6 5 3 5 6 4 3 2 2 3 2 1 2 2 1 4 6 10 14 16 17 19 19 19 19 19 20 18 15 15 15 14
Wind_Direction
358 357 356 356 354 350 348 347 348 350 344 337 332 326 308 268 242 237 229 222 226 230 246 293 321 334 345 340 296 214 199 191 205 217 222 237 256 259 274 284 184 128 121 117 128 189 186 201 217 214 224 223 233 247 37 349 30 38 12 13 41 115 136 213 56 85 131 84 81 88 100 98 73 72 77 74 71 76 73 69 73 74 76 80 81 74 68 62
357 355 355 353 351 349 346 346 347 350 348 341 336 330 307 258 234 231 221 214 216 220 239 287 316 327 334 328 283 227 220 207 216 234 233 234 254 274 282 194 146 129 129 131 176 208 184 192 209 212 224 229 234 58 36 30 49 59 70 33 272 152 115 132 92 99 106 87 98 97 89 76 61 69 75 74 64 65 69 65 66 71 72 74 76 72 66 60
356 352 352 351 349 348 345 346 346 348 349 342 339 333 303 243 225 221 208 204 206 213 237 285 309 320 321 315 265 241 228 223 240 243 230 233 258 257 193 153 137 124 122 77 304 255 241 194 186 218 231 246 335 39 42 55 63 90 129 137 231 69 93 110 97 83 75 84 96 82 79 77 69 71 82 87 70 59 58 53 57 64 65 69 74 75 71 65
353 350 350 348 348 347 346 346 345 346 347 343 342 334 296 224 214 204 194 193 196 205 243 288 308 314 309 304 275 262 245 243 237 215 217 238 235 185 157 142 126 122 100 4 334 290 289 198 204 235 232 295 21 41 59 98 103 139 140 106 106 72 77 93 100 95 83 94 90 81 85 79 72 64 69 82 74 60 55 50 53 61 64 68 72 73 71 66
350 349 347 347 347 347 347 346 346 347 346 344 342 338 299 211 196 183 182 184 188 200 259 296 309 306 309 298 269 256 250 255 155 177 203 190 168 155 145 127 129 137 92 349 315 268 262 236 249 292 37 10 36 31 26 70 109 146 84 56 75 80 76 73 95 109 116 109 90 85 84 78 74 61 59 66 69 61 57 58 59 63 70 74 73 71 70 66
348 346 346 346 347 348 348 347 349 351 349 345 344 350 337 188 171 174 174 175 182 196 274 306 305 296 271 234 236 228 242 332 112 159 156 152 151 140 133 117 133 149 84 348 289 237 227 249 252 73 46 326 74 55 27 46 56 105 73 65 69 70 80 75 84 98 101 91 84 89 88 86 83 71 65 67 70 65 61 65 66 66 68 69 72 72 70 65
346 345 344 345 347 349 349 349 353 357 353 349 350 4 55 156 164 169 168 171 177 221 296 301 281 267 244 239 243 236 243 81 122 145 137 141 142 128 129 121 141 153 60 318 279 237 237 249 73 80 86 278 82 73 51 56 54 72 79 73 71 70 75 78 81 82 84 85 86 92 89 81 79 78 74 71 73 69 67 70 72 75 71 69 71 72 73 70
344 343 343 345 347 349 350 351 355 -0 358 353 1 18 90 154 163 162 163 164 157 298 292 283 272 274 260 254 271 254 223 125 131 135 133 137 132 131 132 120 125 146 290 295 282 272 262 130 68 60 16 308 56 73 82 81 68 71 86 81 80 79 75 80 82 77 77 82 85 85 81 75 77 81 75 73 75 70 72 76 75 77 75 74 74 72 74 75
343 341 342 344 347 349 350 353 356 1 3 2 14 34 123 152 157 154 155 141 113 293 285 283 282 281 269 264 281 272 122 125 143 134 133 135 135 149 131 125 320 291 268 280 292 285 270 98 88 100 241 291 43 75 83 76 76 78 87 86 80 78 78 82 81 78 75 77 83 84 82 82 85 83 72 72 81 79 78 79 79 79 74 70 71 70 68 71
343 340 341 343 347 349 350 354 357 2 8 12 28 88 136 148 149 143 137 99 336 296 288 290 293 284 271 273 288 277 119 136 154 140 143 147 154 149 131 169 264 260 261 274 267 266 271 92 118 154 187 152 58 63 62 66 85 85 84 85 80 79 83 82 81 84 82 77 78 76 77 78 76 76 74 80 86 86 81 77 78 79 77 73 71 71 66 69
343 340 339 342 346 349 351 356 359 3 14 19 48 118 138 142 140 129 104 41 320 300 299 304 303 279 264 272 280 190 132 153 158 162 174 166 188 202 193 231 259 246 254 259 249 267 274 123 119 129 139 126 107 72 73 87 96 94 94 94 83 77 79 78 80 87 86 81 78 76 77 74 66 69 89 101 92 88 88 79 77 77 76 77 72 70 68 72
343 339 337 341 346 349 351 357 1 3 16 30 85 127 139 137 129 104 45 352 314 308 309 310 278 264 285 281 262 152 135 161 164 180 192 188 212 224 236 250 256 251 262 276 262 260 115 92 85 96 119 143 114 81 92 95 92 101 106 94 75 64 78 85 87 102 100 89 79 72 70 64 62 77 95 106 99 90 89 78 73 74 69 73 74 72 71 72
343 339 336 339 346 349 351 359 3 1 20 68 111 131 134 121 108 66 2 328 320 315 295 245 229 257 290 294 159 133 135 165 169 183 193 206 224 226 242 249 244 251 269 279 251 116 86 71 91 108 122 101 92 100 102 72 53 69 87 94 83 64 91 91 80 113 99 80 50 43 62 51 59 93 104 109 111 99 90 87 84 80 74 74 75 78 78 75
342 338 336 337 344 349 350 359 6 8 49 101 119 129 120 104 73 16 347 342 345 289 223 216 225 257 276 113 127 146 146 155 177 192 195 207 218 214 224 227 215 241 270 288 105 100 89 177 133 91 61 32 91 111 99 61 38 45 77 140 128 94 102 100 126 220 89 91 82 70 83 50 56 105 120 118 112 106 98 101 98 90 92 86 78 84 86 84
342 338 335 334 342 348 349 359 11 22 73 109 116 115 102 82 3 9 4 9 96 204 215 216 233 257 246 134 146 166 150 162 188 190 193 197 205 189 167 175 197 238 237 120 134 125 104 77 60 71 62 42 63 97 91 85 85 30 93 216 306 97 99 106 150 198 86 110 100 76 92 97 76 104 119 115 102 104 104 104 105 100 97 87 76 85 90 91
341 339 333 332 338 345 347 357 9 23 71 105 115 108 97 43 352 12 28 104 132 197 219 218 230 241 220 125 151 166 169 193 186 177 179 194 209 164 144 173 190 202 164 155 169 130 112 89 74 63 62 56 44 42 30 135 178 203 133 192 198 129 100 89 75 62 82 109 85 79 95 100 90 87 100 106 101 106 108 111 116 105 96 89 79 91 101 98
341 339 333 331 333 340 343 351 5 7 12 59 128 107 33 355 357 5 86 135 165 215 225 250 279 250 194 115 165 189 190 189 172 166 167 204 219 145 147 178 182 176 131 150 141 123 112 91 96 73 56 74 49 44 12 233 182 168 126 73 116 108 106 108 58 59 86 95 85 92 93 82 83 82 88 97 102 109 112 115 117 106 101 99 85 95 111 104
339 337 333 329 327 335 336 344 1 351 289 287 176 140 306 316 330 295 148 138 153 218 243 267 271 260 148 159 190 190 169 166 165 162 163 203 187 141 164 170 166 135 102 147 107 88 99 84 94 95 64 94 106 94 208 226 231 207 135 129 120 110 112 104 98 93 95 95 92 88 87 85 81 75 72 79 89 101 107 105 105 103 100 99 93 93 100 96
337 335 332 326 323 328 327 335 356 354 286 244 280 286 310 320 280 232 169 176 171 196 227 205 227 274 150 179 188 150 149 155 164 165 164 181 151 152 171 125 108 73 95 138 33 31 104 107 101 122 122 151 178 190 199 173 220 241 124 123 125 114 100 93 117 127 86 83 95 90 85 88 81 70 64 67 80 92 101 101 96 96 93 91 95 88 75 77
334 335 330 325 321 320 319 326 348 5 351 324 358 294 314 330 267 179 157 212 209 205 209 172 216 263 163 174 177 148 149 162 179 167 155 169 157 159 144 100 113 145 97 65 40 22 245 119 110 146 172 184 203 209 199 175 200 230 88 105 107 106 105 113 136 120 88 75 90 98 92 85 83 84 79 72 77 87 96 100 97 97 97 96 98 92 79 77
332 333 329 324 318 314 311 314 337 7 11 48 39 269 302 7 298 325 101 247 236 224 237 205 227 246 157 167 174 159 166 184 191 161 155 184 175 158 130 116 180 161 122 106 145 210 211 20 115 205 194 181 199 204 173 161 178 153 110 103 102 105 104 113 113 97 104 109 101 97 95 93 87 90 98 94 89 90 93 98 101 103 102 100 96 88 82 85
331 330 329 323 315 313 302 302 331 347 348 17 309 278 322 14 336 332 338 282 253 223 253 216 202 219 162 180 187 170 185 197 186 154 166 181 143 147 138 152 219 92 120 138 201 237 191 97 137 177 220 169 153 156 139 161 177 139 112 100 96 98 93 104 99 80 89 110 115 109 98 99 98 96 104 101 95 92 93 97 104 106 103 101 96 87 87 89
328 326 328 322 311 311 297 291 325 349 353 331 315 312 346 354 334 326 293 279 256 206 242 200 185 196 168 182 196 194 204 195 180 155 173 182 143 170 206 187 205 192 147 173 186 224 160 137 152 147 187 112 102 115 134 152 126 81 91 97 102 117 116 113 104 106 175 122 115 113 98 96 104 103 97 93 95 93 92 94 97 98 98 101 100 96 96 93
325 324 326 323 309 307 298 281 306 358 345 320 328 9 351 343 338 334 303 276 254 200 212 194 203 213 178 180 181 202 219 194 192 156 168 212 166 176 210 212 192 178 196 211 212 233 115 141 173 162 149 160 121 101 100 141 115 104 109 109 135 154 147 119 116 144 179 132 119 112 96 91 98 102 97 97 102 97 94 95 93 94 96 97 97 95 96 91
320 320 323 324 312 303 295 279 296 336 310 292 327 9 346 349 340 338 325 283 260 185 181 185 211 215 177 185 184 198 223 180 208 182 166 223 212 180 216 205 159 175 199 211 215 238 129 145 172 192 169 169 149 125 207 248 161 111 120 146 161 152 138 119 121 137 147 133 162 177 89 95 97 101 106 109 107 99 98 99 96 97 97 97 97 96 99 95
314 317 318 324 318 303 282 291 277 265 279 300 356 354 344 346 338 353 349 287 232 158 161 179 199 181 164 186 192 206 248 184 206 202 169 215 265 187 251 205 179 206 213 216 202 163 149 146 164 202 147 121 135 135 153 291 340 89 146 168 163 130 122 121 118 121 151 169 176 256 22 106 108 106 114 117 109 100 98 97 97 99 96 96 100 100 101 100
307 311 311 320 326 315 300 298 273 261 298 349 4 342 337 337 353 58 229 287 168 164 171 169 176 177 181 190 189 207 263 169 180 204 193 211 184 187 234 202 190 199 206 226 203 130 144 145 166 193 105 77 288 193 122 193 255 98 141 160 157 125 122 131 128 133 212 200 124 129 130 116 113 112 117 117 108 106 104 99 98 101 102 101 100 101 102 102
300 304 304 308 325 321 307 295 282 277 306 341 344 331 328 330 2 104 229 294 110 161 176 166 164 188 191 189 195 206 120 139 175 191 198 208 196 204 225 180 227 226 188 176 105 167 166 148 163 170 131 139 243 232 171 203 228 115 133 153 148 126 120 125 136 128 104 333 122 126 117 99 105 118 121 117 113 114 113 111 108 107 110 110 106 103 102 100
292 296 297 295 306 310 297 286 282 281 294 315 322 313 308 325 0 217 248 278 161 185 165 159 165 187 194 185 202 219 179 171 207 169 176 212 210 236 289 271 246 225 175 174 140 160 168 147 148 150 154 207 209 199 191 198 252 134 124 105 79 75 85 90 107 114 117 221 158 130 138 131 113 129 150 136 122 120 117 118 116 111 111 112 113 111 106 102
284 288 291 288 292 296 288 285 295 305 308 301 293 285 298 315 303 222 235 239 205 181 140 150 171 190 206 184 193 228 222 208 213 167 180 220 201 215 256 277 286 241 187 212 61 103 109 46 140 141 156 213 189 188 187 183 195 166 70 62 51 33 27 37 38 53 62 236 156 141 159 158 122 141 161 133 122 125 125 125 123 122 122 118 116 115 109 105
277 278 281 283 287 288 278 271 325 323 299 282 273 276 294 288 233 232 217 223 226 165 142 164 180 185 202 193 181 211 213 201 204 181 187 212 192 203 226 238 282 265 215 193 110 126 154 174 161 132 164 204 179 177 188 183 173 107 70 75 68 24 350 18 46 44 29 219 156 134 128 94 113 147 133 126 131 133 132 134 131 129 127 122 118 114 111 107
273 269 271 277 278 271 260 251 265 277 272 279 279 280 281 241 218 240 225 236 219 158 167 194 182 180 198 204 190 194 205 197 197 202 200 197 188 207 227 211 208 218 189 165 150 167 163 137 97 112 174 233 202 175 189 178 150 109 96 106 94 137 263 102 133 93 110 220 174 131 119 91 93 114 125 130 132 135 136 136 134 132 127 122 118 114 110 106
269 264 263 270 271 263 255 257 267 269 270 282 279 260 256 233 223 227 226 251 168 154 201 206 176 182 195 202 197 196 210 200 192 204 204 205 201 199 219 206 196 227 211 200 220 185 147 89 172 163 177 232 241 208 199 211 152 115 115 125 125 195 195 96 175 124 124 223 178 130 127 106 94 112 136 130 125 131 131 129 131 133 130 124 120 116 109 103
265 264 265 266 266 262 255 255 261 263 264 267 252 237 236 240 240 220 211 230 194 175 207 196 171 184 194 202 202 194 208 208 196 197 188 203 212 191 212 207 186 207 211 191 227 225 194 171 182 180 131 167 209 188 164 222 319 101 140 173 190 204 190 35 264 101 110 200 163 128 129 114 120 141 141 131 132 135 131 129 131 131 127 122 118 114 109 105
262 261 266 265 258 261 262 251 243 241 226 213 226 230 222 232 242 235 225 218 193 187 204 198 185 187 192 207 205 194 209 223 201 201 198 206 217 201 211 200 188 219 216 155 172 301 309 258 161 132 61 186 201 160 157 173 176 90 167 188 201 201 193 206 8 54 92 122 171 124 111 110 130 138 135 136 137 134 132 134 136 134 128 122 118 116 112 109
264 257 263 269 264 263 260 237 214 192 193 205 222 229 223 230 232 236 247 227 199 189 193 195 197 191 188 203 207 192 194 223 220 212 205 183 176 229 224 179 179 224 220 86 59 240 303 310 159 144 199 243 255 99 153 149 134 10 326 232 255 257 235 235 325 51 81 112 169 123 116 129 132 134 143 147 141 139 140 141 140 137 130 125 124 120 113 106
266 263 262 262 255 243 225 207 202 193 203 215 226 235 230 234 234 233 237 219 201 198 194 191 196 197 192 191 200 188 175 197 226 214 215 185 161 243 252 191 171 226 214 129 227 247 194 316 261 194 205 215 35 353 237 114 126 181 215 208 255 281 283 321 315 243 95 121 183 136 137 145 136 146 161 157 156 156 151 146 144 138 134 133 126 118 112 107
281 285 272 255 228 212 199 195 203 205 215 221 234 247 244 239 236 239 250 224 199 202 205 197 193 202 209 192 185 185 173 181 207 186 168 220 162 279 269 214 169 249 259 153 168 221 147 221 267 247 221 167 139 265 229 143 162 204 234 211 216 262 299 33 344 293 88 118 157 119 129 137 160 179 164 166 173 165 154 150 148 143 140 134 124 120 118 115
308 307 280 245 193 189 191 192 203 211 219 219 224 239 242 247 235 226 242 234 206 208 203 195 205 207 231 239 197 183 178 189 200 176 141 119 195 268 267 222 165 231 261 210 190 160 152 211 266 258 257 146 151 230 230 169 181 205 243 239 202 169 113 158 209 270 345 131 158 130 129 145 190 192 171 173 175 163 156 157 152 147 144 138 131 128 123 120
313 299 274 209 173 182 191 196 208 215 220 221 229 232 226 243 238 218 231 236 210 217 203 196 212 199 207 249 235 195 187 201 193 152 143 172 213 240 248 244 182 197 218 224 227 139 146 191 290 277 260 179 177 217 203 71 180 214 256 269 225 102 64 264 216 90 356 307 131 151 173 156 173 192 179 166 162 164 162 158 154 149 148 144 137 133 125 119
292 277 254 185 172 182 189 198 211 215 220 220 230 239 230 240 242 218 225 238 221 216 210 223 233 208 201 227 245 252 211 203 170 130 150 210 221 231 244 261 243 190 190 212 228 14 19 166 231 276 254 243 298 250 130 130 207 231 258 275 296 32 61 286 301 61 58 298 317 154 146 139 178 197 176 156 156 168 162 154 153 150 150 147 136 131 126 117
268 257 216 183 186 191 191 204 216 212 221 225 226 234 233 240 244 217 209 223 228 218 208 230 266 248 221 202 209 282 251 205 149 136 174 215 209 209 214 237 271 10 83 46 4 25 13 267 216 267 264 310 312 309 129 153 230 254 263 257 221 143 127 283 327 9 272 255 279 146 117 120 296 79 139 149 154 160 156 154 154 149 147 142 134 132 128 121
243 243 231 198 198 201 204 222 224 211 220 232 231 232 229 232 238 223 204 204 218 220 201 198 226 245 235 194 179 245 250 210 152 154 193 216 200 197 184 204 249 318 85 56 351 15 1 300 249 288 302 316 313 305 276 195 260 277 275 287 287 180 130 87 56 248 299 347 350 58 93 213 15 48 90 139 148 152 151 154 152 144 141 139 139 139 131 125
265 268 261 223 202 209 218 226 222 210 220 233 239 245 239 228 225 225 213 200 205 214 203 195 202 215 223 209 205 245 277 258 167 156 174 187 179 199 197 187 224 257 93 100 50 351 307 330 336 322 334 349 332 319 289 200 233 284 278 274 292 308 42 63 56 83 24 13 10 62 97 191 137 102 136 150 148 148 146 147 145 139 141 145 144 139 132 130
288 280 257 221 201 213 227 234 235 225 219 225 234 247 243 225 221 227 225 214 210 212 209 207 211 213 214 213 210 221 256 252 220 136 138 159 174 183 180 184 211 208 88 102 117 183 203 7 327 316 357 285 300 314 288 290 347 326 308 265 244 304 2 19 32 28 33 20 14 66 111 170 155 148 162 157 148 143 140 142 143 144 149 150 142 135 136 136
283 265 232 206 201 216 229 239 249 260 246 232 224 225 230 225 221 224 228 227 216 211 215 217 216 217 216 216 216 214 218 226 227 187 162 175 196 179 172 187 194 99 83 91 64 309 194 149 327 349 24 273 280 272 256 265 294 292 306 313 293 0 54 20 359 35 41 19 32 85 116 152 165 163 162 158 152 148 147 147 148 153 152 145 138 139 141 139
279 267 236 210 207 218 226 234 242 251 250 250 233 207 218 225 221 213 221 232 225 216 221 221 219 220 212 210 223 224 218 220 222 217 199 195 218 180 173 185 133 91 102 145 151 298 263 163 59 14 326 276 270 252 236 233 251 257 275 339 304 302 86 48 345 76 125 291 91 135 145 156 175 180 169 163 157 150 152 157 158 158 151 142 143 148 146 140
249 255 254 281 260 223 218 222 227 229 235 245 247 206 210 218 221 211 211 226 232 223 220 222 223 224 213 208 218 224 224 228 222 216 214 207 195 160 168 202 150 128 162 186 151 163 295 43 68 28 291 273 267 258 252 242 248 262 263 229 265 269 105 115 293 5 79 0 22 164 172 173 184 179 162 160 159 154 157 162 160 156 151 149 152 154 151 146
254 261 268 307 301 251 243 231 223 223 226 230 235 225 215 213 217 216 205 213 226 214 206 220 229 227 220 213 216 222 224 236 242 229 224 212 183 158 174 211 165 150 176 197 121 80 329 55 99 241 255 268 272 269 268 260 250 258 264 248 244 249 180 168 278 21 43 359 347 101 175 295 235 169 155 157 158 157 160 160 157 155 151 151 158 160 156 152
272 288 303 321 306 269 267 258 235 227 220 217 226 236 229 218 215 216 206 206 217 207 205 214 217 231 239 226 216 216 215 223 243 252 247 236 185 221 213 203 151 160 187 184 112 71 339 171 208 249 260 272 270 257 252 255 257 256 257 262 266 264 255 132 25 28 32 345 356 23 336 303 344 128 142 152 153 154 159 158 160 159 150 151 165 164 156 151
274 294 308 310 304 279 266 253 242 239 223 212 216 228 237 230 219 217 211 210 215 210 211 219 211 218 241 242 231 228 226 226 222 229 254 239 163 277 279 300 97 117 200 154 127 135 262 227 226 240 260 279 269 252 252 261 263 259 254 266 277 275 298 333 59 64 29 354 351 334 281 317 86 112 131 143 149 154 157 160 166 162 152 158 170 164 154 149
278 278 277 270 281 286 271 241 227 236 234 223 216 215 229 237 230 226 219 221 225 216 211 226 226 212 231 243 234 221 230 239 230 229 262 247 199 217 226 186 145 153 179 194 178 196 245 261 267 266 271 282 277 285 330 324 286 265 290 316 306 280 266 277 127 124 121 80 312 303 87 89 104 123 132 143 153 158 160 168 172 160 155 168 175 163 154 149
Height
1534 1532 1530 1528 1525 1524 1522 1521 1519 1517 1515 1514 1513 1512 1511 1510 1510 1511 1511 1512 1512 1512 1512 1512 1511 1511 1510 1509 1509 1508 1508 1507 1506 1506 1506 1505 1505 1505 1504 1504 1504 1504 1504 1503 1504 1506 1506 1505 1505 1503 1503 1501 1499 1498 1498 1500 1499 1502 1509 1516 1523 1525 1528 1527 1521 1524 1525 1523 1526 1526 1523 1523 1524 1523 1525 1527 1528 1529 1531 1533 1535 1536 1537 1538 1538 1539 1538 1538
1534 1532 1530 1528 1525 1524 1522 1520 1519 1517 1515 1513 1512 1511 1510 1510 1510 1510 1511 1511 1512 1512 1512 1512 1511 1511 1510 1509 1508 1508 1507 1507 1506 1506 1506 1505 1504 1505 1504 1505 1505 1504 1504 1503 1504 1505 1504 1503 1503 1502 1501 1498 1496 1497 1499 1501 1501 1506 1514 1522 1524 1519 1519 1520 1518 1520 1522 1524 1525 1524 1523 1523 1523 1524 1526 1528 1530 1531 1532 1535 1536 1537 1539 1540 1540 1541 1541 1540
1535 1533 1530 1528 1525 1523 1522 1520 1518 1516 1514 1513 1511 1510 1510 1509 1510 1510 1511 1511 1511 1512 1512 1512 1511 1510 1509 1509 1508 1507 1507 1507 1506 1505 1505 1504 1504 1505 1505 1505 1505 1504 1505 1504 1504 1504 1502 1501 1501 1501 1499 1496 1495 1498 1502 1503 1504 1509 1514 1522 1520 1511 1514 1517 1518 1521 1523 1525 1523 1524 1525 1524 1526 1526 1527 1529 1532 1533 1535 1537 1537 1538 1540 1541 1542 1543 1543 1543
1535 1533 1531 1528 1526 1523 1521 1519 1517 1516 1514 1513 1511 1510 1509 1509 1510 1510 1511 1511 1511 1512 1512 1511 1511 1510 1509 1508 1508 1507 1507 1507 1505 1504 1503 1503 1504 1505 1505 1506 1505 1505 1505 1504 1504 1505 1502 1500 1500 1499 1497 1497 1498 1501 1503 1502 1504 1509 1511 1515 1513 1509 1514 1515 1519 1523 1524 1525 1524 1525 1526 1526 1528 1528 1528 1529 1532 1536 1538 1540 1540 1540 1542 1543 1544 1544 1544 1545
1535 1533 1531 1528 1526 1523 1521 1519 1516 1515 1513 1512 1511 1510 1509 1509 1510 1510 1511 1511 1512 1512 1512 1511 1510 1510 1509 1508 1508 1507 1507 1507 1504 1502 1503 1503 1505 1505 1506 1506 1506 1506 1506 1505 1506 1506 1504 1502 1500 1497 1499 1500 1503 1505 1503 1500 1503 1508 1509 1508 1508 1511 1515 1515 1519 1525 1524 1524 1524 1525 1526 1528 1530 1530 1532 1532 1535 1540 1541 1541 1541 1542 1543 1543 1544 1545 1545 1546
1536 1533 1531 1528 1526 1523 1521 1518 1516 1514 1513 1512 1511 1510 1510 1510 1510 1510 1511 1511 1512 1512 1511 1511 1510 1509 1509 1508 1507 1507 1507 1507 1504 1503 1503 1504 1506 1506 1507 1507 1507 1508 1507 1506 1506 1506 1505 1502 1500 1500 1504 1504 1505 1506 1504 1503 1504 1508 1510 1509 1510 1513 1515 1517 1520 1523 1524 1524 1526 1527 1528 1530 1531 1533 1535 1536 1538 1542 1542 1542 1542 1543 1543 1543 1544 1545 1546 1546
1535 1533 1531 1529 1526 1524 1521 1519 1516 1514 1513 1512 1511 1511 1510 1510 1510 1511 1511 1512 1512 1512 1511 1510 1510 1509 1508 1507 1507 1507 1506 1505 1504 1504 1505 1506 1507 1506 1507 1507 1508 1508 1507 1507 1507 1505 1504 1502 1502 1504 1508 1507 1504 1504 1506 1507 1506 1510 1513 1512 1513 1515 1516 1519 1521 1522 1524 1525 1527 1528 1529 1530 1531 1535 1538 1539 1541 1542 1543 1543 1543 1544 1544 1543 1544 1545 1546 1547
1535 1533 1531 1529 1526 1524 1521 1519 1517 1515 1514 1513 1512 1511 1511 1511 1511 1511 1512 1512 1512 1512 1511 1510 1509 1509 1508 1507 1508 1506 1505 1506 1505 1505 1506 1506 1507 1507 1508 1508 1508 1508 1508 1509 1507 1505 1503 1502 1505 1508 1510 1509 1505 1506 1508 1509 1510 1512 1514 1514 1515 1518 1520 1521 1523 1524 1525 1526 1529 1529 1530 1532 1533 1536 1538 1541 1543 1543 1544 1544 1545 1545 1545 1544 1545 1546 1547 1548
1535 1533 1531 1529 1527 1524 1522 1519 1517 1515 1514 1513 1513 1512 1512 1512 1512 1512 1513 1513 1513 1512 1511 1510 1510 1509 1508 1508 1509 1507 1505 1507 1507 1507 1507 1507 1508 1508 1508 1509 1509 1510 1509 1509 1507 1505 1503 1503 1507 1511 1513 1511 1507 1508 1508 1510 1514 1514 1514 1516 1517 1520 1522 1523 1524 1526 1527 1528 1530 1531 1532 1534 1535 1537 1541 1544 1545 1545 1545 1545 1546 1547 1546 1546 1547 1548 1548 1549
1535 1533 1532 1529 1527 1525 1523 1520 1518 1516 1515 1514 1513 1513 1512 1513 1513 1513 1513 1513 1513 1512 1511 1510 1510 1509 1509 1509 1509 1507 1506 1508 1508 1507 1508 1508 1508 1508 1509 1509 1510 1511 1510 1508 1508 1506 1503 1504 1507 1510 1511 1510 1509 1509 1509 1512 1516 1515 1516 1518 1520 1522 1523 1524 1526 1528 1529 1531 1532 1533 1534 1536 1536 1538 1544 1548 1547 1547 1547 1547 1548 1548 1548 1548 1549 1549 1549 1550
1535 1533 1532 1530 1527 1525 1523 1521 1519 1517 1515 1514 1514 1514 1514 1514 1514 1514 1514 1513 1513 1512 1511 1510 1510 1510 1510 1510 1509 1506 1507 1509 1509 1508 1508 1508 1509 1509 1510 1511 1511 1511 1509 1508 1507 1505 1504 1506 1507 1508 1509 1510 1511 1512 1512 1514 1517 1518 1519 1521 1523 1524 1525 1527 1528 1530 1531 1532 1534 1534 1536 1538 1538 1540 1546 1549 1548 1549 1548 1548 1549 1549 1550 1550 1551 1551 1551 1552
1534 1533 1531 1530 1528 1526 1524 1521 1519 1518 1516 1515 1515 1515 1515 1515 1514 1514 1514 1514 1513 1512 1511 1511 1511 1510 1510 1509 1508 1506 1507 1509 1510 1510 1509 1509 1510 1510 1511 1511 1512 1510 1508 1507 1506 1506 1506 1506 1507 1510 1512 1511 1513 1515 1517 1518 1519 1519 1521 1525 1529 1528 1529 1531 1531 1531 1531 1533 1535 1535 1541 1545 1542 1544 1547 1548 1549 1549 1549 1549 1549 1550 1552 1552 1552 1553 1553 1554
1534 1533 1531 1530 1528 1526 1525 1522 1520 1519 1517 1516 1516 1516 1516 1515 1515 1514 1514 1513 1513 1512 1511 1511 1511 1511 1510 1508 1506 1507 1509 1510 1510 1510 1510 1510 1510 1511 1511 1511 1511 1511 1509 1507 1507 1507 1507 1509 1509 1511 1512 1512 1515 1518 1519 1520 1521 1523 1524 1528 1535 1536 1534 1533 1533 1532 1531 1536 1537 1537 1551 1557 1548 1547 1549 1548 1550 1550 1550 1550 1550 1552 1553 1554 1554 1554 1555 1555
1535 1533 1531 1530 1528 1527 1525 1523 1521 1519 1518 1517 1517 1517 1517 1516 1515 1515 1514 1513 1513 1512 1511 1511 1511 1511 1510 1508 1508 1508 1509 1510 1510 1510 1511 1511 1511 1511 1512 1512 1512 1511 1509 1507 1508 1508 1509 1512 1511 1512 1516 1515 1516 1519 1521 1523 1525 1529 1532 1531 1534 1542 1541 1535 1535 1534 1533 1538 1537 1538 1554 1559 1549 1548 1550 1549 1551 1551 1551 1551 1552 1554 1554 1555 1556 1556 1556 1556
1535 1533 1531 1530 1528 1527 1526 1524 1522 1521 1520 1519 1518 1518 1517 1517 1516 1515 1514 1514 1513 1512 1512 1511 1510 1510 1509 1509 1509 1509 1509 1509 1510 1510 1510 1511 1510 1510 1511 1512 1512 1510 1509 1509 1510 1510 1513 1514 1513 1518 1521 1519 1519 1522 1526 1528 1530 1532 1539 1544 1541 1541 1542 1536 1534 1533 1534 1537 1535 1539 1553 1556 1548 1547 1550 1551 1552 1551 1552 1553 1554 1555 1555 1556 1556 1557 1558 1558
1535 1533 1532 1530 1529 1527 1526 1525 1523 1522 1521 1520 1519 1518 1518 1517 1516 1516 1515 1514 1514 1513 1512 1510 1510 1510 1508 1508 1509 1509 1509 1508 1509 1509 1510 1510 1509 1509 1511 1512 1511 1510 1510 1510 1510 1511 1513 1515 1521 1524 1522 1524 1527 1529 1531 1532 1536 1534 1542 1558 1550 1540 1542 1540 1535 1532 1533 1536 1536 1541 1550 1552 1548 1547 1550 1552 1553 1552 1553 1555 1556 1556 1556 1557 1558 1558 1558 1558
1535 1533 1532 1530 1529 1528 1527 1526 1524 1523 1522 1521 1520 1519 1518 1518 1517 1516 1515 1514 1514 1513 1512 1511 1510 1509 1507 1508 1510 1509 1508 1508 1508 1509 1510 1510 1508 1509 1511 1512 1511 1510 1511 1510 1511 1513 1513 1516 1523 1527 1524 1528 1531 1536 1542 1543 1544 1539 1545 1561 1550 1539 1546 1545 1540 1536 1534 1537 1540 1543 1546 1549 1549 1548 1550 1551 1552 1553 1554 1556 1556 1557 1558 1558 1558 1559 1559 1559
1535 1533 1532 1530 1529 1528 1527 1526 1525 1523 1522 1521 1520 1519 1519 1518 1517 1517 1516 1515 1515 1514 1514 1512 1510 1510 1510 1509 1508 1507 1506 1508 1508 1508 1510 1509 1509 1510 1511 1512 1510 1511 1514 1514 1515 1516 1516 1517 1522 1527 1530 1533 1533 1540 1550 1548 1544 1539 1545 1561 1553 1544 1546 1544 1544 1541 1537 1541 1545 1547 1549 1551 1551 1549 1550 1551 1553 1555 1555 1557 1557 1557 1558 1559 1559 1558 1559 1560
1535 1533 1532 1530 1529 1528 1527 1526 1525 1524 1523 1522 1521 1520 1519 1518 1517 1517 1517 1516 1515 1515 1513 1511 1509 1509 1510 1507 1505 1506 1506 1508 1508 1508 1510 1509 1509 1511 1511 1512 1512 1513 1515 1516 1519 1518 1517 1518 1524 1530 1534 1536 1535 1537 1542 1541 1538 1531 1533 1546 1547 1545 1546 1544 1545 1542 1541 1546 1549 1551 1553 1554 1553 1552 1553 1553 1554 1556 1557 1558 1558 1559 1559 1559 1560 1559 1560 1561
1535 1533 1532 1530 1529 1528 1527 1526 1525 1524 1523 1522 1521 1520 1519 1518 1517 1516 1516 1516 1514 1512 1509 1508 1508 1505 1505 1505 1505 1507 1507 1508 1508 1507 1509 1509 1509 1511 1511 1513 1514 1515 1516 1518 1522 1520 1517 1521 1526 1528 1531 1533 1531 1530 1534 1537 1535 1529 1530 1537 1537 1541 1547 1545 1544 1543 1546 1551 1552 1553 1554 1555 1555 1554 1555 1556 1556 1556 1558 1559 1559 1560 1560 1560 1560 1560 1561 1561
1534 1533 1532 1530 1529 1528 1527 1526 1525 1524 1524 1523 1522 1521 1519 1519 1519 1517 1516 1515 1512 1510 1507 1506 1507 1504 1504 1506 1505 1507 1508 1508 1506 1506 1509 1509 1508 1510 1513 1515 1515 1515 1518 1519 1522 1520 1518 1524 1527 1525 1523 1525 1527 1527 1533 1536 1532 1532 1537 1540 1538 1539 1543 1542 1542 1544 1545 1552 1556 1554 1555 1558 1556 1555 1557 1557 1557 1557 1558 1559 1560 1561 1561 1561 1561 1561 1562 1562
1534 1533 1531 1530 1529 1527 1527 1526 1525 1525 1524 1523 1522 1521 1519 1519 1520 1519 1518 1515 1511 1510 1507 1505 1506 1505 1505 1507 1506 1507 1508 1506 1505 1507 1508 1509 1510 1512 1514 1518 1517 1515 1517 1520 1525 1523 1522 1526 1526 1522 1519 1521 1524 1525 1529 1530 1528 1531 1533 1538 1541 1540 1542 1543 1543 1544 1543 1549 1556 1554 1556 1560 1557 1556 1558 1558 1557 1558 1559 1559 1560 1561 1561 1562 1562 1562 1563 1564
1534 1532 1531 1530 1528 1528 1527 1526 1526 1525 1524 1523 1522 1521 1521 1520 1520 1519 1519 1516 1511 1509 1508 1506 1506 1505 1505 1507 1507 1507 1506 1505 1505 1506 1508 1509 1510 1512 1514 1517 1517 1516 1519 1522 1523 1523 1527 1529 1523 1520 1521 1522 1523 1523 1525 1525 1526 1530 1531 1540 1546 1542 1544 1548 1548 1549 1545 1546 1551 1551 1555 1560 1559 1559 1559 1559 1558 1558 1559 1560 1560 1561 1561 1562 1563 1563 1564 1563
1533 1532 1531 1529 1528 1528 1526 1527 1526 1526 1525 1523 1522 1522 1522 1521 1520 1519 1518 1515 1510 1506 1507 1508 1507 1506 1505 1507 1508 1508 1505 1505 1504 1505 1508 1508 1507 1511 1511 1510 1513 1517 1520 1520 1517 1517 1523 1526 1521 1520 1523 1524 1525 1525 1526 1527 1528 1529 1531 1539 1546 1543 1541 1545 1549 1550 1545 1545 1548 1551 1560 1565 1563 1564 1562 1559 1559 1559 1560 1561 1561 1562 1562 1563 1564 1564 1564 1564
1533 1532 1531 1529 1529 1527 1526 1527 1526 1526 1526 1524 1523 1523 1523 1522 1520 1519 1518 1517 1512 1505 1505 1508 1507 1505 1506 1508 1508 1506 1504 1505 1505 1504 1507 1507 1506 1509 1508 1507 1511 1517 1519 1515 1514 1515 1518 1521 1520 1521 1523 1522 1524 1526 1527 1527 1527 1531 1532 1533 1539 1539 1536 1539 1546 1550 1554 1558 1550 1549 1567 1574 1565 1564 1564 1560 1559 1560 1560 1561 1562 1563 1563 1564 1565 1565 1565 1565
1532 1532 1530 1530 1529 1526 1527 1526 1526 1526 1524 1524 1524 1523 1524 1522 1520 1520 1519 1522 1518 1506 1505 1507 1506 1505 1506 1508 1507 1506 1507 1506 1504 1504 1505 1507 1506 1507 1509 1508 1508 1512 1512 1507 1508 1511 1513 1518 1519 1519 1522 1523 1525 1526 1525 1524 1529 1536 1535 1531 1532 1534 1536 1539 1545 1553 1563 1564 1548 1544 1564 1575 1569 1565 1563 1560 1560 1561 1560 1561 1562 1563 1564 1565 1565 1566 1567 1567
1532 1531 1530 1530 1529 1527 1527 1525 1526 1525 1523 1525 1524 1524 1525 1521 1521 1520 1523 1533 1524 1507 1505 1505 1504 1505 1504 1506 1506 1507 1510 1506 1503 1505 1505 1506 1507 1507 1509 1507 1505 1507 1503 1504 1513 1511 1508 1516 1520 1518 1523 1528 1529 1527 1523 1523 1530 1534 1529 1529 1532 1532 1536 1540 1543 1551 1553 1550 1546 1544 1552 1567 1573 1567 1561 1559 1561 1563 1562 1562 1563 1564 1565 1566 1566 1567 1567 1568
1531 1530 1529 1529 1529 1528 1527 1525 1525 1524 1525 1526 1524 1525 1524 1521 1523 1519 1528 1545 1527 1503 1503 1503 1503 1505 1502 1505 1505 1504 1505 1504 1505 1507 1505 1506 1506 1505 1504 1503 1504 1503 1497 1506 1521 1513 1502 1511 1517 1517 1523 1528 1527 1524 1521 1521 1526 1525 1519 1523 1527 1529 1534 1537 1541 1548 1548 1550 1556 1549 1547 1565 1574 1565 1558 1559 1562 1565 1565 1563 1564 1565 1565 1566 1567 1568 1568 1569
1530 1530 1528 1528 1529 1528 1527 1526 1524 1524 1526 1525 1524 1525 1522 1522 1524 1518 1531 1544 1520 1499 1501 1502 1504 1505 1502 1503 1504 1501 1501 1503 1505 1504 1504 1505 1506 1505 1504 1501 1499 1500 1497 1502 1511 1508 1501 1504 1507 1511 1519 1521 1520 1519 1518 1520 1523 1520 1516 1522 1530 1533 1536 1539 1543 1548 1552 1560 1562 1552 1550 1565 1575 1566 1560 1562 1563 1565 1565 1563 1563 1565 1566 1567 1567 1568 1568 1569
1529 1529 1528 1527 1527 1527 1526 1525 1525 1525 1525 1525 1524 1523 1522 1524 1523 1528 1544 1538 1510 1499 1501 1502 1504 1503 1502 1503 1504 1503 1501 1502 1502 1501 1504 1504 1503 1505 1504 1500 1497 1498 1499 1499 1501 1504 1503 1502 1502 1507 1514 1512 1511 1514 1515 1517 1519 1518 1522 1534 1545 1548 1545 1547 1550 1554 1565 1568 1557 1549 1545 1554 1570 1568 1558 1560 1561 1560 1562 1563 1564 1564 1566 1567 1567 1567 1568 1569
1528 1528 1527 1526 1526 1526 1525 1525 1525 1525 1525 1524 1523 1522 1524 1523 1521 1536 1544 1522 1502 1501 1501 1502 1502 1500 1502 1504 1506 1506 1501 1501 1499 1499 1504 1502 1502 1504 1502 1503 1502 1502 1506 1504 1504 1505 1504 1506 1504 1503 1507 1506 1507 1512 1513 1513 1515 1521 1533 1544 1554 1562 1561 1561 1564 1568 1578 1573 1551 1542 1540 1548 1567 1567 1554 1555 1556 1556 1560 1562 1563 1564 1564 1565 1566 1567 1567 1569
1526 1526 1526 1525 1525 1525 1524 1524 1523 1524 1524 1523 1523 1524 1525 1526 1528 1534 1527 1509 1505 1505 1498 1500 1500 1499 1502 1502 1503 1503 1500 1501 1498 1498 1502 1500 1502 1503 1501 1505 1505 1511 1518 1514 1510 1508 1506 1505 1503 1504 1506 1503 1506 1513 1513 1512 1514 1523 1536 1545 1559 1572 1572 1569 1570 1572 1576 1567 1545 1539 1544 1553 1563 1559 1551 1553 1553 1554 1558 1559 1561 1563 1563 1565 1566 1567 1568 1569
1524 1524 1524 1524 1524 1523 1523 1523 1522 1523 1523 1523 1525 1523 1523 1533 1535 1524 1514 1510 1508 1502 1495 1496 1496 1497 1502 1503 1503 1500 1499 1501 1498 1498 1499 1499 1503 1503 1500 1500 1499 1509 1517 1514 1513 1514 1513 1509 1504 1506 1507 1502 1505 1513 1519 1518 1517 1524 1532 1543 1557 1567 1572 1573 1567 1567 1571 1561 1539 1533 1545 1560 1564 1557 1551 1551 1552 1554 1556 1558 1561 1562 1563 1565 1566 1567 1569 1569
1523 1522 1523 1523 1522 1522 1522 1522 1522 1522 1522 1523 1525 1524 1529 1539 1529 1511 1511 1510 1501 1497 1495 1493 1494 1498 1500 1502 1501 1498 1501 1502 1497 1497 1500 1501 1505 1506 1503 1499 1496 1502 1507 1511 1514 1515 1523 1522 1509 1506 1506 1504 1505 1511 1518 1519 1520 1524 1524 1533 1544 1547 1557 1565 1557 1557 1566 1562 1545 1535 1547 1565 1569 1559 1550 1549 1551 1554 1556 1558 1561 1562 1564 1566 1566 1568 1569 1570
1521 1521 1521 1521 1521 1521 1521 1521 1521 1521 1523 1523 1523 1525 1532 1535 1521 1508 1508 1501 1495 1497 1495 1491 1494 1500 1502 1500 1497 1494 1499 1502 1497 1497 1501 1502 1505 1507 1505 1500 1498 1499 1503 1515 1517 1513 1523 1522 1504 1502 1504 1502 1505 1505 1507 1516 1526 1527 1520 1529 1539 1533 1535 1543 1540 1539 1551 1561 1555 1546 1552 1558 1556 1551 1547 1549 1551 1552 1556 1559 1560 1563 1564 1565 1568 1569 1570 1571
1519 1519 1520 1519 1519 1520 1520 1520 1520 1521 1522 1522 1524 1526 1525 1520 1512 1507 1502 1494 1493 1495 1495 1496 1497 1500 1504 1501 1497 1494 1496 1501 1500 1499 1501 1502 1505 1506 1502 1498 1497 1497 1501 1514 1520 1517 1526 1522 1502 1502 1506 1501 1503 1503 1501 1512 1527 1529 1527 1533 1531 1520 1518 1532 1539 1535 1546 1565 1559 1551 1558 1556 1551 1553 1549 1548 1553 1553 1555 1559 1560 1563 1564 1566 1568 1569 1570 1571
1518 1518 1518 1517 1518 1519 1519 1520 1520 1521 1521 1520 1524 1523 1515 1508 1503 1499 1495 1492 1492 1491 1496 1503 1499 1498 1503 1501 1499 1497 1497 1502 1501 1501 1504 1504 1506 1506 1500 1496 1495 1496 1496 1506 1515 1513 1520 1525 1508 1502 1509 1502 1501 1504 1502 1505 1515 1525 1530 1526 1521 1519 1516 1525 1542 1544 1556 1574 1562 1549 1558 1561 1561 1562 1552 1549 1554 1554 1554 1557 1559 1562 1564 1566 1567 1568 1571 1572
1518 1517 1517 1515 1516 1518 1519 1520 1520 1521 1521 1520 1521 1518 1510 1504 1498 1494 1492 1490 1491 1491 1497 1503 1499 1497 1501 1501 1500 1496 1497 1504 1502 1504 1511 1511 1509 1506 1502 1499 1497 1496 1493 1498 1510 1509 1511 1526 1517 1502 1505 1503 1500 1507 1510 1507 1507 1514 1517 1511 1517 1533 1531 1530 1544 1549 1558 1572 1565 1553 1554 1560 1564 1559 1550 1551 1554 1553 1554 1556 1558 1561 1563 1565 1567 1568 1571 1572
1518 1517 1515 1513 1515 1517 1518 1519 1519 1520 1519 1518 1519 1515 1507 1502 1495 1493 1493 1490 1490 1493 1497 1501 1500 1499 1500 1499 1498 1495 1497 1503 1502 1504 1513 1517 1517 1510 1502 1500 1500 1499 1496 1496 1506 1507 1508 1525 1524 1506 1500 1502 1504 1509 1514 1513 1507 1506 1508 1505 1508 1521 1527 1531 1535 1540 1551 1563 1567 1567 1562 1559 1557 1547 1543 1549 1548 1549 1554 1555 1557 1561 1563 1565 1567 1568 1570 1571
1518 1518 1514 1512 1515 1516 1516 1518 1518 1518 1516 1515 1514 1508 1502 1499 1494 1491 1492 1490 1490 1493 1496 1499 1499 1500 1501 1499 1497 1495 1496 1499 1500 1504 1510 1514 1518 1513 1502 1499 1499 1499 1498 1496 1501 1504 1506 1520 1526 1513 1503 1505 1510 1510 1510 1512 1511 1511 1514 1512 1511 1513 1519 1527 1526 1529 1545 1555 1561 1570 1570 1557 1545 1537 1537 1542 1544 1547 1551 1553 1557 1560 1562 1565 1566 1568 1570 1571
1519 1517 1514 1512 1514 1515 1515 1517 1516 1514 1512 1510 1508 1503 1498 1497 1493 1490 1492 1491 1491 1492 1494 1497 1498 1499 1502 1501 1498 1496 1496 1497 1499 1505 1510 1510 1512 1512 1503 1498 1498 1498 1499 1500 1503 1507 1510 1516 1523 1521 1514 1514 1512 1503 1501 1507 1510 1513 1516 1515 1516 1518 1523 1534 1537 1533 1541 1549 1549 1557 1567 1557 1540 1534 1535 1537 1542 1545 1546 1551 1556 1559 1562 1565 1566 1568 1570 1571
1518 1515 1511 1512 1513 1513 1514 1514 1511 1510 1509 1506 1503 1500 1497 1495 1493 1491 1492 1492 1492 1491 1493 1497 1498 1499 1499 1497 1498 1499 1499 1499 1501 1506 1509 1508 1507 1508 1503 1499 1498 1498 1502 1507 1508 1508 1510 1513 1519 1522 1520 1518 1514 1503 1500 1503 1504 1506 1510 1509 1512 1517 1522 1533 1544 1539 1535 1536 1531 1539 1560 1558 1538 1532 1535 1536 1541 1544 1546 1551 1554 1558 1562 1564 1566 1569 1570 1572
1516 1512 1510 1511 1511 1512 1513 1512 1508 1506 1505 1502 1498 1495 1494 1494 1493 1491 1491 1493 1493 1492 1494 1498 1501 1501 1497 1493 1498 1502 1499 1499 1502 1505 1507 1505 1502 1501 1501 1500 1500 1498 1503 1512 1513 1510 1512 1516 1522 1525 1519 1514 1512 1506 1499 1500 1504 1508 1508 1506 1508 1511 1513 1520 1529 1531 1532 1534 1532 1544 1565 1560 1539 1533 1536 1537 1541 1545 1548 1551 1553 1558 1562 1564 1567 1569 1570 1573
1515 1511 1510 1510 1510 1511 1511 1509 1506 1504 1502 1500 1496 1494 1494 1494 1493 1492 1491 1492 1492 1492 1494 1496 1498 1500 1497 1494 1497 1500 1500 1502 1502 1501 1505 1506 1502 1500 1500 1501 1502 1501 1504 1511 1514 1514 1518 1521 1525 1533 1536 1534 1532 1527 1517 1508 1509 1512 1510 1509 1509 1507 1508 1514 1517 1522 1533 1537 1535 1551 1568 1558 1539 1536 1538 1539 1542 1545 1549 1552 1555 1559 1563 1566 1568 1569 1571 1574
1514 1511 1509 1508 1509 1509 1508 1505 1502 1500 1499 1498 1497 1497 1497 1495 1493 1492 1491 1490 1490 1490 1492 1493 1494 1495 1495 1495 1497 1500 1502 1505 1503 1502 1506 1508 1503 1500 1500 1501 1502 1503 1504 1508 1510 1512 1518 1523 1525 1535 1549 1556 1553 1547 1537 1523 1517 1516 1512 1511 1510 1507 1511 1517 1519 1527 1539 1537 1533 1547 1558 1550 1538 1537 1539 1540 1542 1546 1549 1553 1557 1561 1564 1566 1568 1570 1573 1574
1515 1511 1507 1506 1507 1507 1506 1503 1500 1499 1497 1497 1497 1497 1499 1497 1493 1491 1491 1490 1489 1488 1490 1492 1491 1492 1494 1494 1498 1501 1501 1501 1501 1501 1505 1507 1503 1499 1500 1501 1501 1503 1506 1508 1509 1511 1516 1521 1523 1528 1538 1543 1540 1534 1528 1523 1522 1522 1517 1514 1511 1509 1512 1518 1523 1533 1537 1536 1539 1544 1545 1545 1542 1539 1540 1541 1543 1547 1550 1554 1558 1561 1563 1566 1568 1571 1573 1575
1515 1510 1504 1504 1505 1504 1503 1501 1499 1499 1497 1496 1496 1495 1497 1497 1494 1493 1493 1491 1489 1488 1490 1490 1489 1492 1494 1496 1499 1500 1499 1499 1500 1499 1500 1503 1502 1499 1499 1500 1501 1505 1509 1510 1511 1513 1517 1522 1524 1524 1527 1528 1525 1521 1518 1518 1520 1518 1517 1520 1518 1512 1514 1520 1527 1530 1529 1534 1546 1543 1537 1542 1543 1536 1538 1541 1542 1547 1550 1553 1557 1559 1562 1566 1568 1571 1574 1575
1514 1508 1503 1503 1503 1501 1500 1498 1497 1496 1495 1495 1493 1492 1495 1497 1495 1496 1495 1492 1490 1490 1491 1493 1492 1491 1492 1494 1499 1500 1500 1502 1502 1499 1499 1501 1503 1502 1502 1501 1501 1506 1509 1509 1511 1513 1517 1523 1524 1523 1526 1524 1519 1516 1512 1512 1514 1511 1511 1517 1518 1514 1516 1521 1523 1522 1522 1531 1540 1536 1533 1538 1536 1533 1536 1539 1541 1546 1550 1552 1555 1558 1562 1565 1568 1571 1573 1575
1512 1508 1504 1504 1502 1498 1496 1495 1494 1494 1494 1494 1494 1493 1494 1496 1495 1494 1492 1492 1493 1491 1492 1496 1496 1492 1490 1490 1495 1500 1502 1504 1506 1503 1500 1500 1503 1505 1505 1505 1503 1504 1508 1509 1512 1514 1519 1525 1525 1523 1526 1523 1516 1514 1511 1509 1510 1510 1508 1509 1510 1511 1513 1517 1519 1518 1520 1526 1527 1527 1531 1532 1528 1528 1532 1536 1541 1546 1549 1552 1555 1558 1562 1565 1567 1570 1572 1574
1513 1510 1507 1506 1503 1498 1497 1495 1493 1492 1492 1493 1495 1494 1492 1492 1493 1491 1488 1491 1495 1492 1491 1495 1496 1493 1491 1489 1492 1497 1498 1499 1503 1504 1500 1501 1507 1507 1505 1506 1505 1504 1506 1509 1513 1517 1521 1526 1524 1520 1524 1523 1515 1511 1510 1508 1509 1509 1509 1507 1507 1509 1512 1514 1517 1518 1522 1526 1525 1526 1532 1531 1524 1524 1530 1536 1541 1545 1549 1552 1554 1557 1561 1564 1566 1569 1571 1574
1513 1512 1511 1510 1505 1500 1498 1496 1493 1493 1492 1491 1493 1493 1491 1490 1489 1488 1487 1488 1490 1491 1491 1492 1493 1493 1492 1491 1492 1495 1495 1495 1498 1500 1498 1501 1507 1508 1505 1505 1506 1508 1510 1513 1516 1518 1521 1524 1519 1518 1527 1525 1513 1509 1509 1507 1507 1509 1510 1509 1509 1511 1514 1515 1517 1520 1523 1527 1528 1530 1533 1531 1526 1526 1532 1537 1541 1545 1549 1552 1554 1557 1560 1563 1565 1567 1570 1573
1511 1511 1511 1511 1507 1501 1497 1495 1494 1495 1493 1489 1489 1491 1491 1490 1487 1487 1490 1489 1486 1487 1490 1490 1491 1493 1494 1495 1494 1495 1497 1496 1495 1498 1499 1498 1501 1504 1505 1505 1505 1509 1513 1515 1517 1517 1518 1522 1519 1520 1528 1523 1512 1511 1510 1511 1518 1521 1515 1511 1511 1511 1513 1514 1516 1518 1520 1524 1529 1532 1532 1529 1528 1530 1534 1539 1542 1545 1548 1551 1554 1556 1558 1562 1564 1565 1569 1573